This is the latest recevied weather packets stored in our database for station/object W4JCW. If no packets are shown the sender has not sent any weather packets the latest 10 day(s).
| Time | Temp. | Humidity | Pressure | Rain* | Wind** | Luminosity | Snow |
|---|---|---|---|---|---|---|---|
| 1777734290 | 13.33° C | 96% | 1011.6 hPa | 3.05 mm | - | 96 W/m² | - |
| 1777733985 | 13.33° C | 96% | 1011.6 hPa | 4.83 mm | - | 68 W/m² | - |
| 1777733683 | 13.33° C | 96% | 1011.9 hPa | 5.33 mm | - | 64 W/m² | - |
| 1777733379 | 13.33° C | 96% | 1011.8 hPa | 4.83 mm | - | 62 W/m² | - |
| 1777733076 | 13.33° C | 96% | 1012 hPa | 4.32 mm | - | 48 W/m² | - |
| 1777732772 | 13.33° C | 96% | 1011.9 hPa | 2.29 mm | - | 53 W/m² | - |
| 1777732469 | 13.33° C | 96% | 1011.6 hPa | 0.51 mm | - | 74 W/m² | - |
| 1777732166 | 13.33° C | 96% | 1011.5 hPa | 0 mm | - | 73 W/m² | - |
| 1777731863 | 13.33° C | 97% | 1011.4 hPa | 0 mm | - | 61 W/m² | - |
| 1777731560 | 13.33° C | 97% | 1011 hPa | 0.51 mm | - | 63 W/m² | - |
| 1777731258 | 13.33° C | 97% | 1010.8 hPa | 0.51 mm | - | 77 W/m² | - |
| 1777730955 | 13.33° C | 97% | 1010.9 hPa | 0 mm | - | 65 W/m² | - |
| 1777730654 | 13.33° C | 97% | 1010.6 hPa | 0 mm | - | 71 W/m² | - |
| 1777730349 | 13.89° C | 97% | 1010.5 hPa | 0 mm | - | 65 W/m² | - |
| 1777730046 | 13.89° C | 97% | 1010.7 hPa | 0 mm | - | 69 W/m² | - |
| 1777729742 | 13.33° C | 97% | 1010.7 hPa | 0.51 mm | - | 77 W/m² | - |
| 1777729439 | 13.33° C | 97% | 1010.3 hPa | 1.27 mm | - | 76 W/m² | - |
| 1777729135 | 13.89° C | 97% | 1010.3 hPa | 1.27 mm | - | 65 W/m² | - |
| 1777728832 | 13.89° C | 97% | 1010.4 hPa | 1.78 mm | - | 65 W/m² | - |
| 1777728529 | 13.89° C | 97% | 1010.8 hPa | 3.05 mm | - | 50 W/m² | - |
| 1777728226 | 13.89° C | 97% | 1010.8 hPa | 3.56 mm | - | 51 W/m² | - |
| 1777727923 | 13.89° C | 97% | 1011.2 hPa | 3.05 mm | - | 55 W/m² | - |
| 1777727620 | 13.89° C | 97% | 1011.2 hPa | 2.29 mm | - | 46 W/m² | - |
| 1777727317 | 13.89° C | 97% | 1011.4 hPa | 3.05 mm | - | 42 W/m² | - |
| 1777727015 | 13.89° C | 97% | 1011.2 hPa | 3.05 mm | - | 35 W/m² | - |
* Rain latest hour (hover to see other rain measurements)
** Current wind speed in m/s (hover to see current wind gust speed)